• în România
  • Lista ţărilor
  • Pe 7 zile
  • Temperatura apei
  • Hartă satelitară
  • Meteo pe hartă
  • Widget-uri
  • user-avatar
    Intrare

    Meteo pe oră la Roman

    Astăzi, 25 Septembrie, Marţi

    Timp Temperatura Precipitaţii Vânt Presiune Umiditate
    00:00 +8°C° 0 mm 3 m/s 748 mmHg 81%
    01:00 +7°C° 0 mm 2 m/s 748 mmHg 81%
    02:00 +7°C° 0 mm 2 m/s 748 mmHg 81%
    03:00 +7°C° 0 mm 2 m/s 749 mmHg 81%
    04:00 +6°C° 0 mm 2 m/s 749 mmHg 81%
    05:00 +6°C° 0 mm 2 m/s 749 mmHg 80%
    06:00 +7°C° 0 mm 3 m/s 750 mmHg 75%
    07:00 +7°C° 0 mm 4 m/s 750 mmHg 70%
    08:00 +8°C° 0 mm 5 m/s 751 mmHg 65%
    09:00 +9°C° 0.1 mm 6 m/s 751 mmHg 61%
    10:00 +9°C° 0.1 mm 6 m/s 752 mmHg 57%
    11:00 +10°C° 0.1 mm 7 m/s 752 mmHg 54%
    12:00 +11°C° 0.2 mm 7 m/s 752 mmHg 51%
    13:00 +11°C° 0.2 mm 7 m/s 752 mmHg 48%
    14:00 +12°C° 0.2 mm 7 m/s 753 mmHg 45%
    15:00 +13°C° 0.1 mm 6 m/s 753 mmHg 46%
    16:00 +11°C° 0.1 mm 6 m/s 753 mmHg 48%
    17:00 +12°C° 0.1 mm 5 m/s 753 mmHg 49%
    18:00 +9°C° 0 mm 5 m/s 754 mmHg 54%
    19:00 +8°C° 0 mm 4 m/s 755 mmHg 59%
    20:00 +8°C° 0 mm 3 m/s 755 mmHg 65%
    21:00 +7°C° 0 mm 3 m/s 756 mmHg 66%
    22:00 +7°C° 0 mm 3 m/s 756 mmHg 68%
    23:00 +5°C° 0 mm 3 m/s 757 mmHg 69%

    Mâine, 26 Septembrie, Miercuri

    Timp Temperatura Precipitaţii Vânt Presiune Umiditate
    00:00 +5°C° 0 mm 3 m/s 757 mmHg 70%
    01:00 +5°C° 0 mm 3 m/s 757 mmHg 71%
    02:00 +5°C° 0 mm 3 m/s 757 mmHg 71%
    03:00 +4°C° 0 mm 3 m/s 758 mmHg 73%
    04:00 +4°C° 0 mm 3 m/s 758 mmHg 74%
    05:00 +4°C° 0 mm 3 m/s 758 mmHg 75%
    06:00 +5°C° 0 mm 4 m/s 759 mmHg 72%
    07:00 +6°C° 0 mm 4 m/s 759 mmHg 68%
    08:00 +7°C° 0 mm 5 m/s 759 mmHg 64%
    09:00 +8°C° 0 mm 5 m/s 759 mmHg 58%
    10:00 +10°C° 0 mm 6 m/s 759 mmHg 52%
    11:00 +11°C° 0 mm 6 m/s 759 mmHg 45%
    12:00 +13°C° 0 mm 6 m/s 759 mmHg 43%
    13:00 +13°C° 0 mm 6 m/s 759 mmHg 40%
    14:00 +14°C° 0 mm 6 m/s 759 mmHg 37%
    15:00 +13°C° 0 mm 5 m/s 758 mmHg 39%
    16:00 +13°C° 0 mm 4 m/s 758 mmHg 41%
    17:00 +12°C° 0 mm 4 m/s 758 mmHg 42%
    18:00 +10°C° 0 mm 3 m/s 758 mmHg 48%
    19:00 +9°C° 0 mm 2 m/s 759 mmHg 54%
    20:00 +8°C° 0 mm 1 m/s 759 mmHg 60%
    21:00 +7°C° 0 mm 1 m/s 759 mmHg 62%
    22:00 +7°C° 0 mm 1 m/s 759 mmHg 64%
    23:00 +7°C° 0 mm 1 m/s 759 mmHg 65%

    Poimâine, 27 Septembrie, Joi

    Timp Temperatura Precipitaţii Vânt Presiune Umiditate
    00:00 +6°C° 0 mm 1 m/s 759 mmHg 66%
    01:00 +6°C° 0 mm 1 m/s 759 mmHg 67%
    02:00 +6°C° 0 mm 1 m/s 758 mmHg 67%
    03:00 +6°C° 0 mm 1 m/s 758 mmHg 67%
    04:00 +6°C° 0 mm 1 m/s 758 mmHg 67%
    05:00 +5°C° 0 mm 2 m/s 757 mmHg 67%
    06:00 +6°C° 0 mm 2 m/s 757 mmHg 62%
    07:00 +8°C° 0 mm 2 m/s 757 mmHg 57%
    08:00 +9°C° 0 mm 2 m/s 756 mmHg 52%
    09:00 +12°C° 0 mm 2 m/s 756 mmHg 45%
    10:00 +15°C° 0 mm 2 m/s 756 mmHg 39%
    11:00 +17°C° 0 mm 2 m/s 755 mmHg 33%
    12:00 +18°C° 0 mm 2 m/s 755 mmHg 31%
    13:00 +19°C° 0 mm 2 m/s 754 mmHg 29%
    14:00 +20°C° 0 mm 2 m/s 754 mmHg 27%
    15:00 +20°C° 0 mm 2 m/s 754 mmHg 31%
    16:00 +20°C° 0 mm 1 m/s 753 mmHg 35%
    17:00 +20°C° 0 mm 1 m/s 753 mmHg 39%
    18:00 +19°C° 0 mm 1 m/s 753 mmHg 42%
    19:00 +16°C° 0 mm 1 m/s 753 mmHg 45%
    20:00 +15°C° 0 mm 1 m/s 754 mmHg 48%
    21:00 +14°C° 0 mm 1 m/s 754 mmHg 51%
    22:00 +13°C° 0 mm 1 m/s 754 mmHg 54%
    23:00 +13°C° 0 mm 1 m/s 754 mmHg 57%

    28 Septembrie, Vineri

    Timp Temperatura Precipitaţii Vânt Presiune Umiditate
    00:00 +12°C° 0 mm 1 m/s 753 mmHg 60%
    01:00 +12°C° 0 mm 1 m/s 753 mmHg 63%
    02:00 +11°C° 0 mm 1 m/s 753 mmHg 66%
    03:00 +11°C° 0 mm 1 m/s 753 mmHg 67%
    04:00 +11°C° 0 mm 1 m/s 752 mmHg 67%
    05:00 +11°C° 0 mm 1 m/s 752 mmHg 68%
    06:00 +12°C° 0 mm 1 m/s 752 mmHg 64%
    07:00 +14°C° 0 mm 1 m/s 751 mmHg 61%
    08:00 +15°C° 0 mm 1 m/s 751 mmHg 57%
    09:00 +18°C° 0 mm 1 m/s 751 mmHg 52%
    10:00 +20°C° 0 mm 1 m/s 751 mmHg 48%
    11:00 +23°C° 0 mm 2 m/s 750 mmHg 44%
    12:00 +24°C° 0 mm 2 m/s 749 mmHg 41%
    13:00 +25°C° 0 mm 2 m/s 749 mmHg 39%
    14:00 +26°C° 0 mm 2 m/s 748 mmHg 37%
    15:00 +25°C° 0 mm 2 m/s 748 mmHg 40%
    16:00 +24°C° 0 mm 2 m/s 747 mmHg 43%
    17:00 +23°C° 0 mm 2 m/s 747 mmHg 46%
    18:00 +20°C° 0 mm 2 m/s 747 mmHg 52%
    19:00 +18°C° 0 mm 2 m/s 747 mmHg 57%
    20:00 +16°C° 0 mm 2 m/s 747 mmHg 62%
    21:00 +16°C° 0 mm 2 m/s 746 mmHg 63%
    22:00 +15°C° 0 mm 2 m/s 746 mmHg 63%
    23:00 +15°C° 0 mm 2 m/s 746 mmHg 64%

    29 Septembrie, Sâmbătă

    Timp Temperatura Precipitaţii Vânt Presiune Umiditate
    00:00 +14°C° 0 mm 2 m/s 746 mmHg 65%
    01:00 +14°C° 0 mm 1 m/s 746 mmHg 66%
    02:00 +14°C° 0 mm 1 m/s 745 mmHg 66%
    03:00 +13°C° 0 mm 1 m/s 745 mmHg 67%
    04:00 +13°C° 0 mm 1 m/s 745 mmHg 68%
    05:00 +13°C° 0 mm 1 m/s 745 mmHg 69%
    06:00 +14°C° 0 mm 1 m/s 745 mmHg 67%
    07:00 +15°C° 0 mm 1 m/s 745 mmHg 64%
    08:00 +16°C° 0 mm 1 m/s 745 mmHg 61%
    09:00 +17°C° 0 mm 2 m/s 745 mmHg 57%
    10:00 +19°C° 0 mm 2 m/s 745 mmHg 53%
    11:00 +21°C° 0 mm 3 m/s 745 mmHg 49%
    12:00 +21°C° 0 mm 3 m/s 745 mmHg 48%
    13:00 +22°C° 0 mm 4 m/s 745 mmHg 47%
    14:00 +22°C° 0 mm 4 m/s 745 mmHg 46%
    15:00 +21°C° 0 mm 4 m/s 745 mmHg 50%
    16:00 +20°C° 0 mm 4 m/s 745 mmHg 53%
    17:00 +19°C° 0 mm 5 m/s 745 mmHg 57%
    18:00 +18°C° 0 mm 4 m/s 745 mmHg 63%
    19:00 +17°C° 0 mm 4 m/s 746 mmHg 68%
    20:00 +14°C° 0 mm 4 m/s 746 mmHg 74%
    21:00 +14°C° 0 mm 4 m/s 747 mmHg 77%
    22:00 +14°C° 0 mm 4 m/s 747 mmHg 80%
    23:00 +13°C° 0 mm 4 m/s 747 mmHg 83%

    30 Septembrie, Duminică

    Timp Temperatura Precipitaţii Vânt Presiune Umiditate
    00:00 +13°C° 0 mm 4 m/s 747 mmHg 85%
    01:00 +13°C° 0 mm 4 m/s 748 mmHg 87%
    02:00 +13°C° 0 mm 4 m/s 748 mmHg 88%
    03:00 +12°C° 0 mm 4 m/s 748 mmHg 88%
    04:00 +12°C° 0 mm 4 m/s 748 mmHg 87%
    05:00 +12°C° 0 mm 4 m/s 749 mmHg 86%
    06:00 +12°C° 0 mm 4 m/s 749 mmHg 85%
    07:00 +12°C° 0 mm 4 m/s 749 mmHg 84%
    08:00 +12°C° 0 mm 4 m/s 749 mmHg 83%
    09:00 +12°C° 0 mm 4 m/s 749 mmHg 79%
    10:00 +13°C° 0 mm 4 m/s 749 mmHg 76%
    11:00 +14°C° 0 mm 4 m/s 749 mmHg 72%
    12:00 +15°C° 0 mm 4 m/s 749 mmHg 67%
    13:00 +17°C° 0 mm 4 m/s 749 mmHg 62%
    14:00 +19°C° 0 mm 4 m/s 748 mmHg 57%
    15:00 +18°C° 0 mm 4 m/s 748 mmHg 58%
    16:00 +18°C° 0 mm 3 m/s 748 mmHg 58%
    17:00 +18°C° 0 mm 3 m/s 748 mmHg 59%
    18:00 +17°C° 0 mm 2 m/s 748 mmHg 63%
    19:00 +16°C° 0 mm 2 m/s 748 mmHg 67%
    20:00 +15°C° 0 mm 2 m/s 748 mmHg 71%
    21:00 +14°C° 0 mm 2 m/s 748 mmHg 73%
    22:00 +14°C° 0 mm 2 m/s 748 mmHg 74%
    23:00 +13°C° 0 mm 2 m/s 748 mmHg 76%
    Arată mai mult